Weather in Volnovakha

Ukraine / Donetsk Region     47°35′52″N   37°29′00″E
temp.,
°C
wind,
m/s
gust,
m/s
humid.,
%
clouds,
%
prec.,
mm/h
press.,
hPa
HPBL,
m
3 march, wed
wed323:00+1w81396100 0.1 1018672
02:000wnw81297100 0.6 1016677
05:00+1nw81396100 0.4 1016777
08:00+1nnw81278100 0.6 10191038
11:00+3nnw7106981 0.0 10211109
14:00+4nnw7106586 0.1 10221300
17:00+1nnw697033 0.1 1023811
20:000nw4107317 0.1 1025309
4 march, thu
thu423:00−1wnw33770 0.0 102590
02:00−1wsw35810 0.0 1025116
05:00−1wsw48800 0.0 1024181
08:00+2wsw610690 0.0 1023539
11:00+6wsw7105126 0.0 10211067
14:00+7sw8115413 0.0 10191292
17:00+5sw713719 0.0 1016601
20:00+3sw7157518 0.0 1016464
5 march, fri
fri523:00+3sw7168677 0.0 1015502
02:00+2sw8169039 0.0 1014573
05:00+2sw7149278 0.0 1013522
08:00+3wsw6109089 0.0 1014531
11:00+5sw6984100 0.0 1013622
14:00+8ssw71167100 0.0 1012872
17:00+6ssw7127393 0.0 1010650
20:00+5ssw6148397 0.0 1011438
6 march, sat
sat623:00+4sw61292100 0.0 1011353
02:00+4wsw51095100 0.0 1011360
05:00+3nw5991100 0.0 1013386
08:00+2nnw5781100 0.0 1015585
11:00+3nnw7868100 0.0 1016905
14:00+3n6854100 0.0 10171086
17:00+2nnw5746100 0.0 10181422
20:000nw61056100 0.0 1021834
7 march, sun
sun723:00−3nnw5105467 0.0 10231108
02:00−3nw695133 0.0 10241078
05:00−4nw59530 0.0 1024766
08:00−2nw68410 0.0 1025961
11:00+1w68370 0.0 10241446
14:00+3wsw710370 0.0 10211635
17:00+1wsw511500 0.0 1020518
20:00−1wsw513550 0.0 1019400